GW0774 Weather Reports


time (UTC)temp
C
wind
direction
speed
KPH
gust
KPH
rain 1hr
cm
rain 24hr
cm
rain mn
cm
humidity
%
barometer
mb
20260902014553 14 286 22.5 54.7 0.00 0.00 0.00 74 1014.9
20260902014037 14 260 20.9 40.2 0.00 0.00 0.00 79 1014.7
20260902013540 14 242 17.7 38.6 0.00 0.00 0.00 80 1014.7
20260902013058 14 311 17.7 40.2 0.00 0.00 0.00 79 1014.8
20260902012536 14 253 19.3 40.2 0.00 0.00 0.00 79 1014.7
20260902012036 14 281 25.7 40.2 0.00 0.00 0.00 78 1014.9
20260902011547 14 274 19.3 35.4 0.00 0.00 0.00 77 1014.8
20260902011037 14 291 19.3 35.4 0.00 0.00 0.00 77 1014.8
20260902010535 14 290 17.7 41.8 0.00 0.00 0.00 77 1015.0
20260902010053 14 252 20.9 41.8 0.00 0.00 0.00 75 1014.8
20260902005536 14 267 19.3 41.8 0.00 0.00 0.00 76 1014.8
20260902005037 15 236 17.7 38.6 0.00 0.00 0.00 77 1014.9
20260902004558 15 252 17.7 33.8 0.00 0.00 0.00 78 1015.0
20260902004036 14 267 17.7 33.8 0.00 0.00 0.00 77 1015.0
20260902003539 14 246 19.3 33.8 0.00 0.00 0.00 76 1015.2
20260902003053 14 231 19.3 33.8 0.00 0.00 0.00 76 1015.2
20260902002541 14 240 17.7 35.4 0.00 0.00 0.00 77 1015.2
20260902002035 14 252 22.5 41.8 0.00 0.00 0.00 76 1015.5
20260902001558 13 257 24.1 41.8 0.00 0.00 0.00 76 1015.6
20260902001038 14 249 17.7 37.0 0.00 0.00 0.00 76 1015.6
20260902000538 13 255 20.9 37.0 0.00 0.00 0.00 74 1015.8
20260901235538 13 241 20.9 35.4 0.00 0.00 0.00 75 1015.8
20260901235037 13 296 19.3 33.8 0.00 0.00 0.00 76 1015.7
20260901234554 13 305 17.7 40.2 0.00 0.00 0.00 77 1015.8
20260901234040 13 250 19.3 40.2 0.00 0.00 0.00 75 1015.8
20260901233544 13 304 17.7 32.2 0.00 0.00 0.00 77 1015.8
20260901233054 13 242 17.7 37.0 0.00 0.00 0.00 79 1015.8
20260901232536 13 246 19.3 37.0 0.00 0.00 0.00 77 1015.7
20260901232040 13 258 16.1 33.8 0.00 0.00 0.00 77 1015.6
20260901231548 13 248 16.1 33.8 0.00 0.00 0.00 78 1015.6
20260901231038 13 264 17.7 33.8 0.00 0.00 0.00 77 1015.6
20260901230536 13 281 17.7 35.4 0.00 0.00 0.00 77 1015.7
20260901230058 13 267 22.5 37.0 0.00 0.00 0.00 77 1015.6
20260901225535 14 240 16.1 37.0 0.00 0.00 0.00 80 1015.5
20260901225036 14 298 19.3 37.0 0.00 0.00 0.00 79 1015.6
20260901224555 13 246 19.3 40.2 0.00 0.00 0.00 79 1015.4
20260901224040 13 287 20.9 41.8 0.00 0.00 0.00 79 1015.5
20260901223538 13 281 22.5 41.8 0.00 0.00 0.00 79 1015.6
20260901223052 13 265 17.7 37.0 0.00 0.00 0.00 79 1015.5
20260901222536 13 309 22.5 37.0 0.00 0.00 0.00 78 1015.5
20260901222038 14 261 19.3 37.0 0.00 0.00 0.00 80 1015.4
20260901221549 13 265 17.7 37.0 0.00 0.00 0.00 78 1015.4
20260901221038 13 278 16.1 33.8 0.00 0.00 0.00 80 1015.4
20260901220536 13 248 19.3 33.8 0.00 0.00 0.00 79 1015.3
20260901220049 13 284 17.7 33.8 0.00 0.00 0.00 79 1015.4
20260901215539 13 263 20.9 33.8 0.00 0.00 0.00 80 1015.5
20260901215036 13 254 17.7 33.8 0.00 0.00 0.00 78 1015.4
20260901214555 13 254 16.1 33.8 0.00 0.00 0.00 78 1015.3
20260901214039 13 248 19.3 38.6 0.00 0.00 0.00 78 1015.2
20260901213536 13 278 20.9 38.6 0.00 0.00 0.00 78 1015.1
20260901213111 13 248 20.9 37.0 0.00 0.00 0.00 77 1015.1
20260901212536 13 286 17.7 32.2 0.00 0.00 0.00 79 1015.1
20260901212036 13 248 19.3 37.0 0.00 0.00 0.00 78 1015.2
20260901211557 13 339 16.1 40.2 0.00 0.00 0.00 80 1015.1
20260901211041 13 251 16.1 40.2 0.00 0.00 0.00 80 1014.9
20260901210541 13 269 17.7 38.6 0.00 0.00 0.00 80 1014.8
20260901210058 13 275 16.1 38.6 0.00 0.00 0.00 80 1014.7
20260901205537 13 246 17.7 33.8 0.00 0.00 0.00 80 1014.7
20260901205039 13 244 16.1 33.8 0.00 0.00 0.00 81 1014.8
20260901204555 13 246 19.3 33.8 0.00 0.00 0.00 81 1014.8
20260901204039 13 234 17.7 33.8 0.00 0.00 0.00 82 1014.9
20260901203539 13 237 14.5 35.4 0.00 0.00 0.00 83 1014.8
20260901203052 13 247 14.5 35.4 0.00 0.00 0.00 83 1014.6
20260901202540 13 292 17.7 35.4 0.00 0.00 0.00 83 1014.6
20260901202039 12 252 20.9 33.8 0.00 0.00 0.00 83 1014.5
20260901201603 12 242 12.9 27.4 0.00 0.00 0.00 84 1014.5
20260901201039 12 286 16.1 27.4 0.00 0.00 0.00 83 1014.5
20260901200539 12 272 11.3 30.6 0.00 0.00 0.00 84 1014.5
20260901200057 12 286 14.5 32.2 0.00 0.00 0.00 83 1014.6
20260901195539 12 288 16.1 32.2 0.00 0.00 0.00 83 1014.6
20260901195041 12 243 17.7 32.2 0.00 0.00 0.00 83 1014.6
20260901194559 12 287 16.1 27.4 0.00 0.00 0.00 84 1014.6
20260901194036 12 286 11.3 22.5 0.00 0.00 0.00 85 1014.5
20260901193539 12 285 6.4 25.7 0.00 0.00 0.00 85 1014.5
20260901193054 12 254 9.7 27.4 0.00 0.00 0.00 84 1014.5
20260901192537 12 245 14.5 27.4 0.00 0.00 0.00 85 1014.5
20260901192039 11 293 11.3 25.7 0.00 0.00 0.00 85 1014.5
20260901191549 12 299 9.7 25.7 0.00 0.00 0.00 86 1014.5
20260901191035 12 302 9.7 20.9 0.00 0.00 0.00 86 1014.3
20260901190538 12 251 11.3 20.9 0.00 0.00 0.00 86 1014.4
20260901190050 12 245 12.9 20.9 0.00 0.00 0.00 86 1014.4
20260901185540 12 252 11.3 19.3 0.00 0.00 0.00 86 1014.4
20260901185038 12 253 9.7 25.7 0.00 0.00 0.00 86 1014.4
20260901184552 12 236 11.3 25.7 0.00 0.00 0.00 86 1014.3
20260901184039 12 235 11.3 27.4 0.00 0.00 0.00 86 1014.3
20260901183538 12 244 11.3 27.4 0.00 0.00 0.00 86 1014.5
20260901183051 11 302 11.3 20.9 0.00 0.00 0.00 86 1014.4
20260901182539 12 247 6.4 25.7 0.00 0.00 0.00 86 1014.2
20260901182036 12 292 9.7 32.2 0.00 0.00 0.00 85 1014.3
20260901181547 12 274 17.7 32.2 0.00 0.00 0.00 85 1014.2
20260901181036 11 265 16.1 32.2 0.00 0.00 0.00 86 1014.2
20260901180535 11 248 17.7 32.2 0.00 0.00 0.00 86 1014.1
20260901180058 11 295 12.9 30.6 0.00 0.00 0.00 85 1013.9
20260901175539 11 234 14.5 30.6 0.00 0.00 0.00 85 1013.8
20260901175041 11 311 16.1 29.0 0.00 0.00 0.00 85 1013.8
20260901174551 11 251 14.5 27.4 0.00 0.00 0.00 85 1013.8
20260901174038 11 280 9.7 27.4 0.00 0.00 0.00 85 1013.9
20260901173540 11 259 8.0 24.1 0.00 0.00 0.00 85 1014.0
20260901173048 11 264 11.3 27.4 0.00 0.00 0.00 85 1013.9
20260901172539 11 287 14.5 29.0 0.00 0.00 0.00 85 1013.9
20260901172039 11 259 16.1 29.0 0.00 0.00 0.00 85 1013.9
20260901171606 11 294 9.7 25.7 0.00 0.00 0.00 85 1013.9
20260901171040 11 276 12.9 37.0 0.00 0.00 0.00 84 1013.8
20260901170539 11 292 14.5 37.0 0.00 0.00 0.00 84 1013.8
20260901170055 11 291 16.1 32.2 0.00 0.00 0.00 85 1013.8
20260901165539 11 257 12.9 27.4 0.00 0.00 0.00 85 1013.7
20260901165040 11 304 9.7 24.1 0.00 0.00 0.00 86 1013.8
20260901164558 11 288 11.3 24.1 0.00 0.00 0.00 86 1013.7
20260901164038 11 318 11.3 24.1 0.00 0.00 0.00 86 1013.7
20260901163539 11 276 11.3 24.1 0.00 0.00 0.00 86 1013.8
20260901163053 11 248 11.3 24.1 0.00 0.00 0.00 86 1013.7
20260901162542 11 273 11.3 24.1 0.00 0.00 0.00 86 1013.7
20260901162038 11 279 11.3 24.1 0.00 0.00 0.00 86 1013.8
20260901161553 11 255 9.7 22.5 0.00 0.00 0.00 85 1013.8
20260901161036 11 248 14.5 32.2 0.00 0.00 0.00 85 1013.8
20260901160539 11 263 11.3 32.2 0.00 0.00 0.00 85 1013.7
20260901160049 11 298 11.3 24.1 0.00 0.00 0.00 85 1013.7
20260901155536 11 227 14.5 29.0 0.00 0.00 0.00 85 1013.6
20260901155036 11 257 16.1 29.0 0.00 0.00 0.00 84 1013.5
20260901154546 11 269 14.5 27.4 0.00 0.00 0.00 84 1013.5
20260901154036 11 291 14.5 27.4 0.00 0.00 0.00 84 1013.3
20260901153543 11 261 16.1 32.2 0.00 0.00 0.00 84 1013.3
20260901153101 11 267 16.1 33.8 0.00 0.00 0.00 85 1013.2
20260901152536 11 257 17.7 33.8 0.00 0.00 0.00 86 1013.2
20260901152039 11 236 12.9 24.1 0.00 0.00 0.00 86 1013.3
20260901151553 11 295 12.9 24.1 0.00 0.00 0.00 86 1013.4
20260901151039 11 245 12.9 25.7 0.00 0.00 0.00 85 1013.5
20260901150537 11 277 12.9 25.7 0.00 0.00 0.00 85 1013.4
20260901145540 11 230 16.1 25.7 0.00 0.00 0.00 85 1013.4
20260901145038 11 297 16.1 25.7 0.00 0.00 0.00 85 1013.4
20260901144558 11 233 11.3 24.1 0.00 0.00 0.00 86 1013.5
20260901144035 11 250 11.3 24.1 0.00 0.00 0.00 85 1013.5
20260901143539 11 256 16.1 25.7 0.00 0.00 0.00 85 1013.5
20260901143105 11 244 14.5 25.7 0.00 0.00 0.00 85 1013.4
20260901142539 11 248 16.1 25.7 0.00 0.00 0.00 85 1013.5
20260901142039 11 257 12.9 20.9 0.00 0.00 0.00 84 1013.6
20260901141604 11 248 12.9 29.0 0.00 0.00 0.00 84 1013.6
20260901141039 11 253 12.9 29.0 0.00 0.00 0.00 84 1013.7
20260901140538 10 257 12.9 22.5 0.00 0.00 0.00 84 1013.8
20260901140058 10 240 11.3 20.9 0.00 0.00 0.00 85 1013.7
20260901135543 10 243 8.0 17.7 0.00 0.00 0.00 85 1013.7
20260901135040 10 245 9.7 20.9 0.00 0.00 0.00 86 1013.8
20260901134619 10 284 8.0 20.9 0.00 0.00 0.00 85 1013.8
20260901134040 10 293 6.4 17.7 0.00 0.00 0.00 84 1013.7
20260901133542 10 311 9.7 17.7 0.00 0.00 0.00 84 1013.8
20260901133101 10 305 11.3 14.5 0.00 0.00 0.00 85 1013.8
20260901132539 10 261 6.4 16.1 0.00 0.00 0.00 85 1013.9
20260901132040 10 280 8.0 17.7 0.00 0.00 0.00 85 1013.8
20260901131549 10 242 6.4 17.7 0.00 0.00 0.00 86 1013.7
20260901131039 9 245 6.4 17.7 0.00 0.00 0.00 86 1013.7
20260901130540 10 269 6.4 17.7 0.00 0.00 0.00 85 1013.7
20260901130059 10 270 6.4 16.1 0.00 0.00 0.00 86 1013.5
20260901125539 10 291 8.0 16.1 0.00 0.00 0.00 85 1013.5
20260901125039 10 248 8.0 17.7 0.00 0.00 0.00 86 1013.4
20260901124600 9 267 8.0 17.7 0.00 0.00 0.00 86 1013.4
20260901124042 9 253 8.0 16.1 0.00 0.00 0.00 86 1013.2
20260901123539 9 261 8.0 16.1 0.00 0.00 0.00 86 1013.4
20260901123055 9 241 6.4 19.3 0.00 0.00 0.00 86 1013.4
20260901122540 9 244 6.4 19.3 0.00 0.00 0.00 86 1013.4
20260901122040 9 242 8.0 19.3 0.00 0.00 0.00 86 1013.4
20260901121549 10 277 11.3 19.3 0.00 0.00 0.00 86 1013.4
20260901121039 10 240 9.7 16.1 0.00 0.00 0.00 86 1013.3
20260901120540 10 290 9.7 16.1 0.00 0.00 0.00 86 1013.3
20260901120056 9 244 8.0 20.9 0.00 0.00 0.00 87 1013.3
20260901115539 9 272 6.4 20.9 0.00 0.00 0.00 86 1013.3
20260901115039 9 255 8.0 20.9 0.00 0.00 0.00 87 1013.4
20260901114601 9 259 6.4 14.5 0.00 0.00 0.00 87 1013.5
20260901114039 9 246 8.0 14.5 0.00 0.00 0.00 87 1013.5
20260901113539 9 269 8.0 14.5 0.00 0.00 0.00 87 1013.6
20260901113051 9 287 6.4 16.1 0.00 0.00 0.00 86 1013.5
20260901112539 9 244 4.8 17.7 0.00 0.00 0.00 86 1013.5
20260901112039 9 243 8.0 17.7 0.00 0.00 0.00 86 1013.6
20260901111549 9 243 8.0 17.7 0.00 0.00 0.00 87 1013.6
20260901111040 9 279 8.0 14.5 0.00 0.00 0.00 87 1013.4
20260901110538 9 255 6.4 14.5 0.00 0.00 0.00 87 1013.3
20260901110058 9 290 6.4 16.1 0.00 0.00 0.00 88 1013.3
20260901105539 9 239 6.4 19.3 0.00 0.00 0.00 88 1013.3
20260901105040 8 244 8.0 19.3 0.00 0.00 0.00 88 1013.3
20260901104553 9 243 12.9 19.3 0.00 0.00 0.00 87 1013.5
20260901104039 9 290 12.9 16.1 0.00 0.00 0.00 88 1013.6
20260901103538 8 254 6.4 11.3 0.00 0.00 0.00 90 1013.8
20260901103100 8 311 3.2 11.3 0.00 0.00 0.00 91 1013.8
20260901102539 8 49 1.6 11.3 0.00 0.00 0.00 90 1013.8
20260901102040 8 38 0.0 11.3 0.00 0.00 0.00 90 1013.6
20260901101547 8 64 4.8 12.9 0.00 0.00 0.00 91 1013.5
20260901101039 8 289 8.0 12.9 0.00 0.00 0.00 93 1013.5
20260901100538 7 235 0.0 6.4 0.00 0.00 0.00 92 1013.5
20260901100058 7 0 1.6 4.8 0.00 0.00 0.00 92 1013.4
20260901095541 7 234 1.6 4.8 0.00 0.00 0.00 92 1013.4
20260901095039 7 234 0.0 3.2 0.00 0.00 0.00 92 1013.4
20260901094558 7 234 0.0 3.2 0.00 0.00 0.00 92 1013.4
20260901094038 7 0 0.0 3.2 0.00 0.00 0.00 92 1013.4
20260901093539 7 0 0.0 3.2 0.00 0.00 0.00 92 1013.4
20260901093052 7 0 0.0 3.2 0.00 0.00 0.00 92 1013.3
20260901092543 7 0 0.0 1.6 0.00 0.00 0.00 92 1013.3
20260901092039 7 0 0.0 1.6 0.00 0.00 0.00 92 1013.3
20260901091552 7 0 0.0 1.6 0.00 0.00 0.00 93 1013.2
20260901091036 7 0 0.0 0.0 0.00 0.00 0.00 92 1013.2
20260901090538 7 0 0.0 1.6 0.00 0.00 0.00 92 1013.3
20260901090056 7 0 0.0 1.6 0.00 0.00 0.00 92 1013.2
20260901085539 7 0 0.0 1.6 0.00 0.00 0.00 92 1013.2
20260901085039 7 0 0.0 1.6 0.00 0.00 0.00 92 1013.1
20260901084557 7 0 0.0 1.6 0.00 0.00 0.00 91 1013.1
20260901084040 7 0 0.0 1.6 0.00 0.00 0.00 91 1013.0
20260901083540 7 0 0.0 1.6 0.00 0.00 0.00 91 1013.0
20260901083059 7 0 0.0 0.0 0.00 0.00 0.00 91 1013.0
20260901082538 7 0 0.0 1.6 0.00 0.00 0.00 91 1012.9
20260901082039 7 0 0.0 1.6 0.00 0.00 0.00 91 1012.9
20260901081557 7 0 0.0 1.6 0.00 0.00 0.00 91 1013.2
20260901081039 7 0 0.0 3.2 0.00 0.00 0.00 91 1013.0
20260901080539 7 0 0.0 3.2 0.00 0.00 0.00 91 1013.0
20260901080058 7 0 0.0 1.6 0.00 0.00 0.00 91 1012.9
20260901075539 7 0 0.0 3.2 0.00 0.00 0.00 91 1012.8
20260901075039 7 234 0.0 3.2 0.00 0.00 0.00 91 1012.5
20260901074603 6 234 0.0 1.6 0.00 0.00 0.00 90 1012.5
20260901074039 6 0 0.0 3.2 0.00 0.00 0.00 91 1012.6
20260901073539 6 234 0.0 3.2 0.00 0.00 0.00 90 1012.7
20260901073102 6 0 0.0 1.6 0.00 0.00 0.00 89 1012.7
20260901072543 6 0 0.0 3.2 0.00 0.00 0.00 89 1012.7
20260901072040 6 0 0.0 3.2 0.00 0.00 0.00 89 1012.7
20260901071557 6 0 1.6 3.2 0.00 0.00 0.00 88 1012.7
20260901071038 7 275 1.6 3.2 0.00 0.00 0.00 88 1012.7
20260901070538 7 272 1.6 3.2 0.00 0.00 0.00 87 1012.6
20260901070057 7 0 0.0 0.0 0.00 0.00 0.00 87 1012.5
20260901065539 7 0 0.0 0.0 0.00 0.00 0.00 87 1012.6
20260901065039 7 0 0.0 0.0 0.00 0.00 0.00 87 1012.6
20260901064553 8 0 0.0 0.0 0.00 0.00 0.00 87 1012.5
20260901064039 8 0 0.0 0.0 0.00 0.00 0.00 87 1012.6
20260901063538 8 0 0.0 0.0 0.00 0.00 0.00 86 1012.5
20260901063047 8 0 0.0 0.0 0.00 0.00 0.00 85 1012.3
20260901062540 8 0 0.0 0.0 0.00 0.00 0.00 85 1012.3
20260901062038 8 0 0.0 0.0 0.00 0.00 0.00 84 1012.4
20260901061556 8 0 0.0 0.0 0.00 0.00 0.00 83 1012.4
20260901061039 9 0 0.0 0.0 0.00 0.00 0.00 82 1012.4
20260901060540 9 0 0.0 0.0 0.00 0.00 0.00 81 1012.4
20260901060058 10 0 0.0 0.0 0.00 0.00 0.00 80 1012.3
20260901055539 10 0 0.0 1.6 0.00 0.00 0.00 80 1012.2
20260901055039 10 0 0.0 6.4 0.00 0.00 0.00 80 1012.2
20260901054553 10 0 0.0 6.4 0.00 0.00 0.00 79 1012.1
20260901054039 11 274 3.2 9.7 0.00 0.00 0.00 79 1012.2
20260901053541 11 267 3.2 9.7 0.00 0.00 0.00 79 1012.1
20260901053052 11 257 6.4 9.7 0.00 0.00 0.00 79 1012.3
20260901052538 11 281 3.2 9.7 0.00 0.00 0.00 78 1012.2
20260901052039 11 272 4.8 16.1 0.00 0.00 0.00 78 1012.2
20260901051559 11 275 6.4 16.1 0.00 0.00 0.00 77 1012.3
20260901051038 11 296 6.4 12.9 0.00 0.00 0.00 77 1012.2
20260901050540 11 290 6.4 14.5 0.00 0.00 0.00 76 1012.3
20260901050053 12 242 6.4 16.1 0.00 0.00 0.00 75 1012.3
20260901045536 12 253 6.4 16.1 0.00 0.00 0.00 74 1012.2
20260901045039 12 253 8.0 22.5 0.00 0.00 0.00 73 1012.2
20260901044547 12 246 12.9 22.5 0.00 0.00 0.00 73 1012.2
20260901044036 12 248 12.9 22.5 0.00 0.00 0.00 74 1012.2
20260901043537 12 244 12.9 20.9 0.00 0.00 0.00 74 1012.1
20260901043048 12 246 12.9 22.5 0.00 0.00 0.00 73 1012.1
20260901042536 12 263 14.5 22.5 0.00 0.00 0.00 72 1011.9
20260901042039 12 250 11.3 24.1 0.00 0.00 0.00 71 1011.9
20260901041559 12 249 12.9 25.7 0.00 0.00 0.00 71 1011.8
20260901041036 12 235 12.9 25.7 0.00 0.00 0.00 71 1011.8
20260901040537 12 232 12.9 24.1 0.00 0.00 0.00 71 1011.8
20260901040110 12 259 14.5 22.5 0.00 0.00 0.00 71 1011.8
20260901035536 12 242 12.9 22.5 0.00 0.00 0.00 69 1011.9
20260901035036 12 257 14.5 20.9 0.00 0.00 0.00 69 1011.8
20260901034549 13 263 9.7 19.3 0.00 0.00 0.00 69 1011.8
20260901034037 13 251 9.7 22.5 0.00 0.00 0.00 67 1011.8
20260901033615 13 254 11.3 24.1 0.00 0.00 0.00 68 1011.6
20260901033057 13 302 14.5 27.4 0.00 0.00 0.00 67 1011.5
20260901032538 13 271 12.9 27.4 0.00 0.00 0.00 69 1011.4
20260901032036 13 304 17.7 27.4 0.00 0.00 0.00 67 1011.3
20260901031556 13 290 11.3 24.1 0.00 0.00 0.00 67 1011.4
20260901031036 13 272 12.9 30.6 0.00 0.00 0.00 65 1011.4
20260901030536 13 237 11.3 30.6 0.00 0.00 0.00 66 1011.4
20260901030050 13 285 12.9 25.7 0.00 0.00 0.00 65 1011.3
20260901025539 13 263 11.3 25.7 0.00 0.00 0.00 67 1011.3
20260901025040 13 234 14.5 22.5 0.00 0.00 0.00 70 1011.3
20260901024600 13 253 11.3 25.7 0.00 0.00 0.00 68 1011.3
20260901024036 13 245 17.7 25.7 0.00 0.00 0.00 64 1011.3
20260901023538 13 310 14.5 24.1 0.00 0.00 0.00 67 1011.1
20260901023100 13 275 12.9 27.4 0.00 0.00 0.00 67 1011.1
20260901022536 13 241 16.1 27.4 0.00 0.00 0.00 67 1011.1
20260901022037 13 238 16.1 27.4 0.00 0.00 0.00 63 1010.9
20260901021557 13 229 12.9 27.4 0.00 0.00 0.00 61 1011.0
20260901021037 13 239 16.1 29.0 0.00 0.00 0.00 63 1011.0
20260901020536 12 246 14.5 30.6 0.00 0.00 0.00 66 1011.0
20260901020051 12 247 20.9 30.6 0.00 0.00 0.00 59 1011.1
20260901015537 12 238 19.3 32.2 0.00 0.00 0.00 64 1010.9
20260901015039 13 257 20.9 32.2 0.00 0.00 0.00 62 1011.0